Location: Amsterdam
(30.7274°N, 84.4357°W)
Time: 16:28:31
(UTC+00:00)

Vanguard 1 Rocket - Pass Details

Date: 22 February 2026
Orbit: 653 x 4214 km, 34.3° (Epoch: 8 March)

Event Time Altitude Azimuth Distance (km) Brightness Sun altitude
Rises 00:51:00 0° 288° (WNW) 6,503 13.1 -18.0°
Reaches altitude 10° 00:54:56 10° 282° (WNW) 5,886 12.7 -18.8°
Maximum altitude 01:13:41 46° 217° (SW) 4,808 11.2 -22.9°
Drops below altitude 10° 01:37:29 10° 152° (SSE) 7,197 11.6 -28.0°
Sets 01:43:09 0° 147° (SSE) 7,973 11.9 -29.2°
